Tracking 35237 objects as of 4-Sep-2026
HD Live streaming from Space Station
objects crossing your sky now

ITALSAT 1

Track ITALSAT 1 now!
ITALSAT 1 is classified as:


NORAD ID: 21055
Int'l Code: 1991-003A
Launch date: January 15, 1991
Source: Italy (IT)
Launch site: FRENCH GUIANA (FRGUI)
Your satellite tracking list
Your tracking list is empty




NASA's NSSDC Master Catalog

Two Line Element Set (TLE):
1 21055U 91003A   26246.69529494 -.00000362  00000-0  00000-0 0  9996
2 21055  14.5306 350.8921 0009938  58.6936 315.7636  0.99971424117878
Source of the keplerian elements: AFSPC